Jackpot

Texas Poker Multi Jackpot System

Kini Telah hadir Jackpot SUPER ROYAL FLUSH

Kini Telah hadir Jackpot 2000 (khusus table VIP keatas).

Ikutilah global jackpot yang tersedia di system kami, dengan system jackpot terbaru dan pertama di indonesia, anda dapat membeli jackpot dengan harga 100 rupiah saja dan menangkan hadiahnya hingga puluhan juta rupiah.

Jackpot bukanlah suatu keharusan untuk dibeli, namun kami memberikan suatu fitur tambahan untuk member tercinta dari www.pokeraon.net.

Terdapat tiga pilihan harga jackpot yang bisa anda beli yaitu :100,500,1000 dan 2000(khusus table VIP Keatas) rupiah.

Hadiah dari Multi jackpot system www.pokeraon.net

  1. full house x 10 harga jackpot yang anda beli.
      (contoh:anda membeli 1000 maka:1000 X10 = 10.000)
  2. four of kind x 250 harga jackpot yang anda beli
      (contoh:anda membeli 1000 maka:1000 X250 = 250.000)
  3. Straight flush x 1200
      (contoh:anda membeli 1000 maka:1000 X1200 = 1.200.000)
  4. Royal flush x 10000 harga jackpot yang anda beli
      (contoh:anda membeli 1000 maka:1000 X10000 = 10.000.000)
  5. SUPER ROYAL FLUSH x 30000 harga jackpot yang anda beli
      (contoh:anda membeli 1000 maka:1000 X30000 = 30.000.000)

Kondisi kartu

  1. full house adalah kondisi kartu dimana kartu anda dan kartu tengah dengan total 7 kartu bisa mendapatkan nilai 5 kartu dengan kombinasi 1 tris(three of kind) dan 1 pair, contoh 3 kartu 10 dan 2 kartu 5
  2. Four of kind adalah kondisi kartu dimana kartu anda dan kartu tengah dengan total 7 kartu bisa mendapatkan nilai 5 kartu dengan kombinasi 4 kartu yang sama jumlah dan 1 kartu apapun juga contoh anda mendapatkan 4 buah kartu angka 3 dan 1 kartu apapun.
  3. Staright flush adalah kondisi kartu dimana kartu anda dan kartu tengah dengan total 7 kartu bisa mendapatkan nilai 5 kartu dengan kombinasi seri / staright dengan kembang yang sama contoh : urutan kartu dari angka 5, 6, 7, 8 , 9 10 dengan kembang yg sama misalnya as hati
  4. Royal flush adalah kondisi kartu dimana kartu anda dan kartu tengah dengan total 7 kartu bisa mendapatkan nilai 5 kartu dengan kombinasi seri / staright dengan kembang yang sama tetapi kartu tersebut haruslah dimulai dari 10. contoh 10, Queen, Jack, King dan aces dengan kembang yang sama
  5. Super Royal flush adalah kondisi kartu dimana Kedua kartu anda digabung dengan 3 kartu pertama meja haruslah royal flush. contoh kartu anda 10,Queen kembang sama dan 3 kartu pertama meja adalah Jack, King dan aces dengan kembang yang sama

Demikian adalah penjelasan dari Multi Jackpot www.pokeraon.net terima kasih dan selamat bermain salam hoki dari kami

Texas Poker Jackpot Winner

TOP SUPER ROYAL FLUSH
No.TanggalNamaPriceWin
115/08 10:23DONKRAYSuper Royal flush30,000,000
215/08 09:49AGUS12121Super Royal flush3,000,000
315/08 08:05LARAS93Super Royal flush15,000,000
415/08 07:46APUY62Super Royal flush30,000,000
515/08 06:39E2E3UNKUT0Super Royal flush30,000,000
TOP ROYAL FLUSH
No.TanggalNamaPriceWin
115/08 15:19KANZ417Royal flush2,000,000
215/08 15:10LX6ZZT7AJSRoyal flush1,000,000
315/08 15:03BATANG99Royal flush1,000,000
415/08 14:26YULI180Royal flush1,000,000
515/08 14:22TUUULLLRoyal flush2,000,000
TOP STRAIGHT FLUSH
No.TanggalNamaPriceWin
115/08 15:36PAERA90Straight Flush120,000
215/08 15:33DEDEXJPStraight Flush120,000
315/08 15:32CUMI1111Straight Flush240,000
415/08 15:28USLUX99Straight Flush1,200,000
515/08 15:27NGEKEXSStraight Flush120,000
LATEST JACKPOT
No.TanggalNamaPriceWin
115/08 15:36JP_NY4Full House1,000
215/08 15:36URAGJUNINGFour Of A Kind125,000
315/08 15:36SHEERAZEVAFull House2,000
415/08 15:36DONOX02Full House5,000
515/08 15:36B25B763FFull House5,000
615/08 15:36LD6ULA3H0MFull House5,000
715/08 15:36COPI89Four Of A Kind50,000
815/08 15:36BV7Y83SGC5Full House5,000
915/08 15:36DAVIDOS0Full House10,000
1015/08 15:36PADANDUT99Full House5,000
1115/08 15:36PIYIK99Full House2,000
1215/08 15:36ANHQUAN1Full House20,000
1315/08 15:36D4F928F7Full House1,000
1415/08 15:36TIARAA888Full House1,000
1515/08 15:36013Full House2,000
1615/08 15:36YUENFull House1,000
1715/08 15:36AAAALAAA59Full House10,000
1815/08 15:36LOJEK69Full House2,000
1915/08 15:36AMPUANGFull House1,000
2015/08 15:36B4J1NG4NDXFull House500
2115/08 15:36B40RV008287Four Of A Kind25,000
2215/08 15:36BITCHHHFull House1,000
2315/08 15:36LUNCAIQQFull House2,000
2415/08 15:36MERMERRY88Full House20,000
2515/08 15:36PRETTY11Full House1,000
2615/08 15:36JJOJJOFull House1,000
2715/08 15:36BK10RJFull House20,000
2815/08 15:36PUSPUS13Full House5,000
2915/08 15:36RCK03Full House5,000
3015/08 15:36CNAME002Full House1,000
3115/08 15:36PAERA90Straight Flush120,000
3215/08 15:36ED1EOKFull House2,000
3315/08 15:36DANROZ80Four Of A Kind125,000
3415/08 15:36BDX12Full House10,000
3515/08 15:36PEDRO92Full House5,000
3615/08 15:36WAWA_99Full House10,000
3715/08 15:36TAKY1Full House2,000
3815/08 15:36RISTIAN12Full House5,000
3915/08 15:36TEMPUYAK90Full House2,000
4015/08 15:36PROF378Full House1,000
4115/08 15:36ZAPFull House10,000
4215/08 15:36ZIRAG22Full House1,000
4315/08 15:36ASEPEKA899Full House10,000
4415/08 15:36JUN788Full House5,000
4515/08 15:36FAWAS09Full House2,000
4615/08 15:36SYAM808Full House10,000
4715/08 15:35D4K3N3Full House2,000
4815/08 15:35TIKUS01Full House5,000
4915/08 15:35JOHNKRISFull House5,000
5015/08 15:35AAAYATEFull House2,000

Domino Multi Jackpot System

Ikutilah global jackpot yang tersedia di system kami, dengan system jackpot terbaru dan pertama di indonesia, anda dapat membeli jackpot dengan harga 100 rupiah saja dan menangkan hadiahnya hingga puluhan juta rupiah.

Jackpot bukanlah suatu keharusan untuk dibeli, namun kami memberikan suatu fitur tambahan untuk member tercinta dari www.pokeraon.net.

Terdapat tiga pilihan harga jackpot yang bisa anda beli yaitu :100,500 dan 1000 rupiah.

Hadiah dari Multi jackpot system www.pokeraon.net

  1. Murni Kecil x 50 harga jackpot yang anda beli.
      (contoh:anda membeli 1000 maka:1000 X 50 = 50.000)
  2. Murni Besar x 50 harga jackpot yang anda beli
      (contoh:anda membeli 1000 maka:1000 X 50 = 50.000)
  3. BALAK x 100 harga jackpot yang anda beli
      (contoh:anda membeli 1000 maka:1000 X 100 = 100.000)
  4. ENAM DEWA x 6666 harga jackpot yang anda beli
      (contoh:anda membeli 1000 maka:1000 X 6666 = 6.666.000)

Demikian adalah penjelasan dari Multi Jackpot www.pokeraon.net terima kasih dan selamat bermain salam hoki dari kami

Domino Jackpot Winner

TOP ENAM DEWA
No.TanggalNamaPriceWin
115/08 14:54HOAS88murni enam3,333,000
215/08 10:05THEDUURSmurni enam6,666,000
315/08 08:34SAENG01murni enam3,333,000
415/08 07:42GUJITXXXmurni enam3,333,000
515/08 06:53TOMPELOO1murni enam6,666,000
TOP BALAK
No.TanggalNamaPriceWin
115/08 15:35BISMILLAH6balak10,000
215/08 15:33HA23XOGQZ9balak100,000
315/08 15:31UNTUNGBGT9balak100,000
415/08 15:30DEWAKI11balak100,000
515/08 15:29UNTUNGBGT9balak100,000
LATEST JACKPOT
No.TanggalNamaPriceWin
115/08 15:36SIRALmurni besar50,000
215/08 15:36MHI11330murni kecil25,000
315/08 15:35DAVISTUARDmurni kecil5,000
415/08 15:35BISMILLAH6balak10,000
515/08 15:35FC89E448lucky9910,000
615/08 15:34DRE17murni besar5,000
715/08 15:34BUTU88murni kecil50,000
815/08 15:34YOUWIN1murni kecil50,000
915/08 15:34LANDOENKmurni kecil50,000
1015/08 15:33TEDY8769murni besar50,000
1115/08 15:33H301190murni besar50,000
1215/08 15:33HHGKOIZKM9murni kecil25,000
1315/08 15:33HA23XOGQZ9balak100,000
1415/08 15:33RIZKYP90murni besar5,000
1515/08 15:33NAYLA6666murni kecil5,000
1615/08 15:32FANTAZ1murni kecil50,000
1715/08 15:32V7MPGQT64Zmurni besar25,000
1815/08 15:31GARUKWAEmurni kecil25,000
1915/08 15:31BK3531lucky9925,000
2015/08 15:31UNTUNGBGT9balak100,000
2115/08 15:30GEERRAD8murni besar50,000
2215/08 15:30GEERRAD8murni besar50,000
2315/08 15:30DEWAKI11balak100,000
2415/08 15:29DUMBA99lucky9950,000
2515/08 15:29UNTUNGBGT9balak100,000
2615/08 15:29FAJARPEPERmurni besar50,000
2715/08 15:29BRSmurni besar50,000
2815/08 15:28F4D0FAF1murni besar25,000
2915/08 15:27CONAN07P9Wmurni besar50,000
3015/08 15:26H301190murni kecil50,000
3115/08 15:26MAMPIR32murni besar25,000
3215/08 15:26GOPLIKAmurni besar5,000
3315/08 15:25B61ACIPLAY9755lucky9910,000
3415/08 15:25MITABOMmurni kecil5,000
3515/08 15:25BT4DNATASYA03murni besar25,000
3615/08 15:25MHDFZmurni kecil50,000
3715/08 15:23TENGKEYUmurni kecil25,000
3815/08 15:23G4S89murni besar50,000
3915/08 15:22AAJEMPOLbalak50,000
4015/08 15:22LINE7878murni kecil25,000
4115/08 15:22GUMARA69murni besar50,000
4215/08 15:22MESDEDmurni besar50,000
4315/08 15:22SITRI13balak50,000
4415/08 15:20DUMBA99balak100,000
4515/08 15:19ROJACKSEmurni kecil50,000
4615/08 15:19SALMA234murni kecil5,000
4715/08 15:19NISTIANASmurni kecil50,000
4815/08 15:19PKNG11murni kecil50,000
4915/08 15:18WIGUNA123murni besar25,000
5015/08 15:18HK5DY5JDKJmurni kecil5,000

Ceme Multi Jackpot System

Jackpot dilihat dari gabungan kartu pemain dengan kartu bandar. Bandar harus membeli jackpot sebanyak jumlah player yang sedang duduk. Sebagai contoh bila terdapat 3 pemain duduk bermain, dan bandar memutuskan untuk membeli jackpot Rp 1.000, maka pada periode tersebut bandar akan membeli jackpot sebanyak 3xRp1.000 = Rp3.000.

Jackpot bukanlah suatu keharusan untuk dibeli, namun kami memberikan suatu fitur tambahan untuk member tercinta dari www.pokeraon.net.

Terdapat tiga pilihan harga jackpot yang bisa anda beli yaitu :100,500 dan 1000 rupiah.

Hadiah dari Multi jackpot system www.pokeraon.net

  1. Murni Kecil x 50 harga jackpot yang anda beli.
      (contoh:anda membeli 1000 maka:1000 X 50 = 50.000)
  2. Murni Besar x 50 harga jackpot yang anda beli
      (contoh:anda membeli 1000 maka:1000 X 50 = 50.000)
  3. BALAK x 200 harga jackpot yang anda beli
      (contoh:anda membeli 1000 maka:1000 X 200 = 200.000)
  4. ENAM DEWA x 6666 harga jackpot yang anda beli
      (contoh:anda membeli 1000 maka:1000 X 6666 = 6.666.000)

Demikian adalah penjelasan dari Multi Jackpot www.pokeraon.net terima kasih dan selamat bermain salam hoki dari kami

Ceme Jackpot Winner

TOP ENAM DEWA
No.TanggalNamaPriceWin
115/08 15:32AGOES212murni enam6,666,000
215/08 15:32PURCHASE98murni enam666,600
315/08 14:34MOMO_murni enam3,333,000
415/08 14:21TOLL2121murni enam3,333,000
515/08 14:19DHIKA99999murni enam6,666,000
TOP BALAK
No.TanggalNamaPriceWin
115/08 15:36OEBAN007balak200,000
215/08 15:36AK3MALbalak200,000
315/08 15:36VERT1GO1balak200,000
415/08 15:36JASAPASTIbalak200,000
515/08 15:36NOLANbalak200,000
LATEST JACKPOT
No.TanggalNamaPriceWin
115/08 15:36AHKOTADEWAmurni besar50,000
215/08 15:36BUSHIDOOKmurni kecil50,000
315/08 15:36DHEDDY86murni kecil50,000
415/08 15:36MARGEDEK86murni besar25,000
515/08 15:36GUNA05murni besar50,000
615/08 15:36OEBAN007balak200,000
715/08 15:36B40SEP88450murni besar5,000
815/08 15:36SANDY_95murni kecil25,000
915/08 15:36RID_WAN9murni kecil50,000
1015/08 15:36AANKBONO30murni kecil25,000
1115/08 15:36ONCES351murni kecil50,000
1215/08 15:36AK3MALmurni besar50,000
1315/08 15:36B24TELIT402murni besar25,000
1415/08 15:36AK3MALbalak200,000
1515/08 15:36VERT1GO1balak200,000
1615/08 15:36YUNA3333murni kecil25,000
1715/08 15:36YUNA3333murni kecil25,000
1815/08 15:36MARKIPAT50murni kecil5,000
1915/08 15:36JASAPASTIbalak200,000
2015/08 15:36JABRIXZmurni besar5,000
2115/08 15:36ZERO_15murni besar50,000
2215/08 15:36ADQL7murni besar50,000
2315/08 15:36BAGU522murni kecil25,000
2415/08 15:36ENDR84murni kecil50,000
2515/08 15:36NOLANbalak200,000
2615/08 15:35AUNG12murni kecil5,000
2715/08 15:35GEMBENGGmurni besar50,000
2815/08 15:35AYUNG301murni besar50,000
2915/08 15:35HARSONO16murni kecil50,000
3015/08 15:35UCINK971murni kecil50,000
3115/08 15:35MEONGKUGmurni besar50,000
3215/08 15:35CEP3Kmurni besar50,000
3315/08 15:35MEONGKUGmurni besar50,000
3415/08 15:35SAHABATFCbalak100,000
3515/08 15:35AGUS_1312murni kecil50,000
3615/08 15:35AHI02murni kecil50,000
3715/08 15:35GOBLOK123murni kecil25,000
3815/08 15:34REKESAmurni kecil50,000
3915/08 15:34BRODOT08murni kecil5,000
4015/08 15:34S4TYUMJ0OQmurni kecil5,000
4115/08 15:34B181927833murni kecil25,000
4215/08 15:34AKIONG898murni kecil50,000
4315/08 15:34DWBTBRK25murni kecil25,000
4415/08 15:34PAKBEEKBRObalak200,000
4515/08 15:34YH7T6V49U1murni kecil25,000
4615/08 15:34GBJTYPO91Vmurni besar25,000
4715/08 15:34MARYONOOObalak200,000
4815/08 15:34RONALDTPmurni besar50,000
4915/08 15:34FIRNANDO88murni besar50,000
5015/08 15:34KIYA80murni besar50,000